www.pogodaiklimat.ru

Погода и климат >> Архив погоды >> Норвегия >> Харстад


ПОГОДА в Харстаде

  • Прогноз погоды в Харстаде
  • Монитор погоды в Харстаде

АРХИВ ПОГОДЫ в Харстаде

Время (UTC), дата Ветер
(напр.,м/с)
 
Видим.   Явления Облачность Т
(С)
Тd
(С)
f
(%)
Тe
(С)
Тes
(С)
Комфортность P
(гПа)
Po
(гПа)
Тmin
(С)
Tmax
(С)
R
(мм)
R24
(мм)
S
(см)
01 15.08 штиль 0-1
{2}
н/о н/о +12.2 +10.8 91 +12 +12 1004.0 998.5
02 15.08 штиль 0
{2}
н/о н/о +12.1 +10.7 91 +11 +11 1004.0 998.4
03 15.08 штиль 0 н/о н/о +12.3 +11.0 92 +12 +12 1003.9 998.4
04 15.08 штиль 0
{1}
н/о н/о +12.5 +11.2 92 +12 +12 1004.0 998.5
05 15.08 штиль 0-1
{2}
н/о н/о +12.4 +11.1 92 +12 +12 1004.0 998.5
06 15.08 СВ 1-2
{2}
н/о н/о +12.6 +11.5 93 +13 +13 1004.2 998.7 +12.1 +13.0 1
07 15.08 СВ 1-2
{2}
н/о н/о +12.5 +11.4 93 +12 +12 1004.4 998.9
08 15.08 З 1-4
{4}
н/о н/о +12.3 +11.2 93 +12 +12 1004.6 999.0
09 15.08 СЗ 2-3
{4}
н/о н/о +11.9 +10.8 93 +11 +11 1004.8 999.3
10 15.08 З 1-3
{3}
н/о н/о +12.9 +11.6 92 +13 +13 1005.0 999.5
11 15.08 С 1-2
{3}
н/о н/о +14.0 +12.2 89 +14 +14 1005.2 999.7
12 15.08 СЗ 2-5
{5}
н/о н/о +13.5 +10.5 82 +13 +13 1005.5 1000.0 0.4
13 15.08 З 1-3
{3}
н/о н/о +13.2 +10.0 81 +13 +13 1005.9 1000.3
14 15.08 З 1-3
{3}
н/о н/о +12.7 +10.1 84 +13 +13 1006.1 1000.6
15 15.08 штиль 0-1
{4}
н/о н/о +13.1 +10.8 86 +13 +13 1006.3 1000.8
16 15.08 З 2-3
{3}
н/о н/о +12.2 +9.9 86 +11 +11 1006.7 1001.2
17 15.08 В 2-3
{4}
н/о н/о +11.5 +9.8 89 +10 +10 1007.0 1001.5
18 15.08 В 1-2
{4}
н/о н/о +11.4 +10.0 91 +11 +11 1007.1 1001.6 +11.3 +14.6 0.5
19 15.08 штиль 0
{2}
н/о н/о +11.3 +9.9 91 +11 +11 1007.2 1001.7
20 15.08 В 1-2
{2}
н/о н/о +11.4 +10.2 92 +11 +11 1007.3 1001.8
21 15.08 В 1-2
{2}
н/о н/о +11.3 +10.1 92 +11 +11 1007.3 1001.8
22 15.08 СВ 1-1
{2}
н/о н/о +11.1 +9.9 92 +11 +11 1007.5 1001.9
23 15.08 штиль 0
{1}
н/о н/о +11.0 +9.8 92 +10 +10 1007.5 1001.9
00 16.08 штиль 0
{2}
н/о н/о +11.0 +9.8 92 +10 +10 1007.4 1001.8
01 16.08 штиль 0 н/о н/о +10.9 +9.8 93 +10 +10 1007.2 1001.6
02 16.08 штиль 0
{1}
н/о н/о +10.9 +9.8 93 +10 +10 1007.0 1001.4
03 16.08 штиль 0 н/о н/о +10.9 +9.8 93 +10 +10 1006.8 1001.2
04 16.08 штиль 0 н/о н/о +11.1 +10.0 93 +10 +10 1006.9 1001.3
05 16.08 штиль 0-1
{2}
н/о н/о +11.4 +10.3 93 +11 +11 1006.7 1001.2
06 16.08 штиль 0-2
{2}
н/о н/о +11.8 +10.5 92 +11 +11 1006.6 1001.1 +10.8 +11.8 0.3
07 16.08 штиль 0-2
{2}
н/о н/о +12.8 +11.0 89 +12 +12 1006.2 1000.7
08 16.08 СВ 1-2
{2}
н/о н/о +13.5 +10.9 84 +14 +14 1005.8 1000.3
09 16.08 В 1-2
{2}
н/о н/о +13.9 +10.7 81 +14 +14 1005.4 999.9
10 16.08 СВ 1-3
{3}
н/о н/о +15.1 +11.1 77 +16 +16 1005.2 999.7
11 16.08 СВ 2-3
{4}
н/о н/о +16.7 +11.0 69 +17 +17 1004.8 999.4
12 16.08 СВ 2-3
{4}
н/о н/о +17.0 +10.6 66 +17 +17 1004.7 999.2
13 16.08 В 3-4
{4}
н/о н/о +15.9 +9.8 67 +15 +15 1004.5 999.0
14 16.08 СВ 1-3
{5}
н/о н/о +16.6 +10.0 65 +18 +18 1004.4 998.9
15 16.08 СВ 1-3
{3}
н/о н/о +15.6 +9.9 69 +16 +16 1004.3 998.8
16 16.08 СВ 1-2
{3}
н/о н/о +15.0 +10.2 73 +16 +16 1004.1 998.6
17 16.08 штиль 0
{2}
н/о н/о +14.3 +9.7 74 +14 +14 1004.1 998.6
18 16.08 Ю 1-3
{5}
н/о н/о +13.7 +9.9 78 +14 +14 1004.4 999.0 +11.8 +17.9
19 16.08 З 1-2
{2}
н/о н/о +12.9 +10.1 83 +13 +13 1004.5 999.0
20 16.08 штиль 0-1
{2}
н/о н/о +12.7 +10.4 86 +12 +12 1004.7 999.2
21 16.08 З 2-4
{5}
н/о н/о +12.0 +9.9 87 +11 +11 1004.9 999.4
22 16.08 Ю 1-2
{3}
н/о н/о +11.6 +9.9 89 +11 +11 1004.9 999.3
23 16.08 Ю 2-5
{5}
н/о н/о +11.4 +9.5 88 +10 +10 1004.9 999.3
00 17.08 З 1-3
{5}
н/о н/о +10.1 +7.7 85 +10 +10 1004.9 999.3 0.6
01 17.08 штиль 0-1
{2}
н/о н/о +9.6 +7.6 87 +9 +9 1005.0 999.4
02 17.08 штиль 0-1
{1}
н/о н/о +10.2 +8.3 88 +9 +9 1005.1 999.6
03 17.08 ЮЗ 1-2
{2}
н/о н/о +11.0 +8.6 85 +11 +11 1004.9 999.3
04 17.08 ЮЗ 1-3
{4}
н/о н/о +11.0 +7.9 81 +11 +11 1004.8 999.3
05 17.08 ЮВ 1-3
{3}
н/о н/о +11.8 +8.1 78 +12 +12 1004.7 999.2
06 17.08 ЮВ 2-5
{5}
н/о н/о +13.2 +8.7 74 +13 +13 1004.6 999.1 +9.4 +13.7 0.4
07 17.08 ЮВ 2-3
{5}
н/о н/о +14.9 +7.9 63 +15 +15 1004.4 999.0
08 17.08 ЮВ 1-3
{4}
н/о н/о +16.8 +8.5 58 +18 +18 1004.1 998.7
09 17.08 В 2-3
{4}
н/о н/о +17.6 +8.2 54 +18 +18 1004.0 998.6
10 17.08 В 2-3
{3}
н/о н/о +18.0 +9.4 57 +19 +19 1003.6 998.2
11 17.08 СВ 2-3
{4}
н/о н/о +18.3 +9.4 56 +19 +19 1003.3 997.9
12 17.08 СВ 2-4
{5}
н/о н/о +18.6 +8.9 53 +20 +20 1003.0 997.6
13 17.08 СВ 1-2
{3}
н/о н/о +15.8 +9.5 66 +17 +17 1002.6 997.1
14 17.08 СВ 1-2
{3}
н/о н/о +16.8 +9.7 63 +18 +18 1002.1 996.7
15 17.08 штиль 0
{2}
н/о н/о +18.3 +8.9 54 +19 +19 1001.5 996.1
16 17.08 штиль 0-1
{2}
н/о н/о +16.8 +8.5 58 +17 +17 1000.9 995.5
17 17.08 штиль 0
{1}
н/о н/о +16.1 +8.8 62 +16 +16 1000.5 995.1
18 17.08 штиль 0-1
{3}
н/о н/о +15.6 +8.8 64 +15 +15 1000.1 994.7 +13.2 +19.0
19 17.08 штиль 0
{1}
н/о н/о +14.9 +8.8 67 +15 +15 999.6 994.1
20 17.08 штиль 0
{2}
н/о н/о +14.6 +9.0 69 +14 +14 999.1 993.6
21 17.08 штиль 0 н/о н/о +14.1 +8.9 71 +14 +14 998.7 993.3
22 17.08 штиль 0
{1}
н/о н/о +13.9 +9.9 77 +14 +14 998.4 992.9
23 17.08 ЮВ 2-5
{5}
н/о н/о +15.2 +11.0 76 +15 +15 998.5 993.1
00 18.08 штиль 0-2
{5}
н/о н/о +14.0 +11.2 83 +14 +14 998.5 993.0 0.4
01 18.08 штиль 0
{1}
н/о н/о +13.6 +11.5 87 +13 +13 998.3 992.9
02 18.08 штиль 0
{1}
н/о н/о +13.7 +11.9 89 +13 +13 998.1 992.7
03 18.08 штиль 0 н/о н/о +13.5 +11.9 90 +13 +13 997.8 992.3
04 18.08 штиль 0 н/о н/о +13.8 +12.4 91 +13 +13 997.7 992.3
05 18.08 штиль 0 н/о н/о +14.5 +13.1 91 +14 +14 997.8 992.3
06 18.08 штиль 0
{1}
н/о н/о +14.4 +13.0 91 +14 +14 998.0 992.5 +13.4 +15.7 1
07 18.08 штиль 0
{1}
н/о н/о +15.3 +13.5 89 +15 +15 998.2 992.7
08 18.08 штиль 0
{2}
н/о н/о +15.4 +12.7 84 +15 +15 998.6 993.1
09 18.08 штиль 0
{1}
н/о н/о +18.3 +14.4 78 +19 +19 998.7 993.3
10 18.08 штиль 0-1
{2}
н/о н/о +20.6 +12.3 59 +22 +22 комфорт 998.5 993.2
11 18.08 штиль 0-1
{3}
н/о н/о +17.8 +11.6 67 +18 +18 998.8 993.4
12 18.08 штиль 0
{3}
н/о н/о +17.1 +12.0 72 +17 +17 999.3 993.8
13 18.08 В 1-3
{3}
н/о н/о +21.1 +13.0 60 +23 +23 комфорт 999.2 993.8
14 18.08 ЮВ 2-4
{4}
н/о н/о +21.5 +12.4 56 +24 +24 комфорт 998.8 993.5
15 18.08 штиль 0-1
{4}
н/о н/о +21.9 +12.2 54 +24 +24 комфорт 998.6 993.3
16 18.08 штиль 0
{3}
н/о н/о +18.5 +11.8 65 +19 +19 998.7 993.3
17 18.08 З 2-4
{9}
н/о н/о +15.9 +12.8 82 +16 +16 999.8 994.4
18 18.08 С 1-2
{9}
н/о н/о +15.1 +13.0 87 +16 +16 1000.5 995.0 +14.4 +23.0 3
19 18.08 штиль 0-1
{3}
н/о н/о +14.7 +12.7 88 +14 +14 1000.9 995.4
20 18.08 С 1-2
{3}
н/о н/о +14.3 +12.7 90 +15 +15 1001.2 995.7
21 18.08 СЗ 1-1
{3}
н/о н/о +13.9 +12.5 91 +14 +14 1001.7 996.2
22 18.08 З 1-2
{2}
н/о н/о +13.6 +12.3 92 +14 +14 1001.7 996.2
23 18.08 штиль 0
{2}
н/о н/о +13.5 +12.4 93 +13 +13 1001.8 996.4
00 19.08 С 1-1
{3}
н/о н/о +13.1 +12.0 93 +13 +13 1001.9 996.4 3
01 19.08 штиль 0-1
{2}
н/о н/о +12.6 +11.5 93 +12 +12 1001.7 996.2
02 19.08 СЗ 1-2
{2}
н/о н/о +13.0 +12.1 94 +13 +13 1001.7 996.2
03 19.08 штиль 0-1
{2}
н/о н/о +12.6 +11.7 94 +12 +12 1001.3 995.8
04 19.08 СВ 1-3
{3}
н/о н/о +13.8 +12.9 94 +14 +14 1001.1 995.7
05 19.08 СВ 1-2
{3}
н/о н/о +13.4 +12.5 94 +13 +13 1000.6 995.1
06 19.08 СВ 2-4
{4}
н/о н/о +13.5 +12.6 94 +13 +13 1000.1 994.7 +12.5 +15.0 3
07 19.08 СВ 2-3
{4}
н/о н/о +13.8 +12.7 93 +13 +13 999.7 994.3
08 19.08 СВ 2-3
{4}
н/о н/о +14.3 +13.2 93 +14 +14 999.1 993.6
09 19.08 СВ 2-3
{5}
н/о н/о +15.0 +13.5 91 +15 +15 998.5 993.1
10 19.08 СВ 1-3
{3}
н/о н/о +15.9 +13.9 88 +17 +17 997.6 992.2
11 19.08 С 2-3
{3}
н/о н/о +16.1 +13.4 84 +16 +16 997.4 992.0
12 19.08 С 2-3
{5}
н/о н/о +17.3 +13.2 77 +18 +18 996.9 991.5
13 19.08 СВ 1-3
{3}
н/о н/о +17.0 +13.1 78 +18 +18 996.7 991.3
14 19.08 -2
{3}
н/о н/о +16.7 +12.7 77 996.5 991.1
15 19.08 З 1-3
{4}
н/о н/о +15.6 +12.2 80 +16 +16 996.3 990.8
16 19.08 З 1-3
{5}
н/о н/о +15.0 +12.1 83 +16 +16 996.2 990.8
17 19.08 З 2-4
{7}
н/о н/о +13.8 +11.3 85 +13 +13 996.3 990.8
18 19.08 ЮЗ 3-5
{7}
н/о н/о +13.0 +11.1 88 +12 +12 996.5 991.1 +13.0 +17.7
19 19.08 СЗ 2-6
{6}
н/о н/о +12.6 +11.0 90 +12 +12 997.0 991.5
20 19.08 СЗ 3-7
{7}
н/о н/о +12.4 +11.0 91 +11 +11 997.6 992.1
21 19.08 З 4-8
{8}
н/о н/о +12.4 +11.0 91 +10 +10 998.3 992.8
22 19.08 СЗ 6-8
{8}
н/о н/о +12.1 +10.8 92 +9 +9 998.9 993.4
23 19.08 З 2-5
{7}
н/о н/о +12.0 +10.7 92 +11 +11 999.5 994.0
00 20.08 ЮВ 1-3
{8}
н/о н/о +11.8 +10.6 92 +12 +12 1000.0 994.5
01 20.08 З 1-4
{4}
н/о н/о +11.8 +10.6 92 +12 +12 1000.7 995.2
02 20.08 З 1-3
{4}
н/о н/о +11.7 +10.3 91 +11 +11 1001.2 995.7
03 20.08 штиль 0-2
{2}
н/о н/о +11.5 +10.1 91 +11 +11 1001.7 996.2
04 20.08 З 2-4
{4}
н/о н/о +11.5 +10.3 92 +10 +10 1002.1 996.6
05 20.08 СЗ 1-2
{3}
н/о н/о +11.6 +10.4 92 +11 +11 1002.6 997.1
06 20.08 СВ 1-2
{4}
н/о н/о +12.0 +10.7 92 +12 +12 1003.2 997.7 +11.5 +13.0 0.2
07 20.08 СВ 2-3
{3}
н/о н/о +11.7 +10.5 92 +10 +10 1003.9 998.4
08 20.08 штиль 0-2
{2}
н/о н/о +12.0 +10.7 92 +11 +11 1004.4 998.9
09 20.08 СВ 1-2
{2}
н/о н/о +12.0 +10.6 91 +12 +12 1005.1 999.6
10 20.08 СВ 2-3
{3}
н/о н/о +12.7 +11.1 90 +12 +12 1005.4 999.9
11 20.08 СВ 1-3
{3}
н/о н/о +13.2 +11.4 89 +13 +13 1005.8 1000.3
12 20.08 СВ 1-2
{3}
н/о н/о +13.8 +11.5 86 +14 +14 1006.4 1000.9
13 20.08 СВ 1-2
{3}
н/о н/о +14.3 +11.6 84 +15 +15 1006.7 1001.2
14 20.08 штиль 0-2
{3}
н/о н/о +14.2 +11.2 82 +14 +14 1007.2 1001.7
15 20.08 СВ 1-2
{2}
н/о н/о +14.2 +11.2 82 +15 +15 1007.6 1002.1
16 20.08 СВ 1-2
{3}
н/о н/о +13.6 +10.8 83 +14 +14 1007.9 1002.4
17 20.08 СВ 1-2
{2}
н/о н/о +13.6 +11.0 84 +14 +14 1008.2 1002.7
18 20.08 штиль 0-1
{3}
н/о н/о +12.9 +10.4 85 +12 +12 1008.5 1002.9 +11.7 +15.7
19 20.08 штиль 0-1
{1}
н/о н/о +12.4 +10.3 87 +12 +12 1008.7 1003.1
20 20.08 ЮЗ 1-3
{3}
н/о н/о +12.9 +11.1 89 +13 +13 1008.9 1003.4
21 20.08 ЮЗ 1-2
{3}
н/о н/о +12.6 +10.5 87 +13 +13 1009.2 1003.7
22 20.08 ЮЗ 2-3
{4}
н/о н/о +12.4 +10.0 85 +11 +11 1009.0 1003.5
23 20.08 ЮЗ 1-2
{3}
н/о н/о +12.5 +9.5 82 +13 +13 1009.0 1003.5
00 21.08 ЮЗ 2-3
{4}
н/о н/о +11.9 +9.1 83 +11 +11 1009.3 1003.7
01 21.08 Ю 1-2
{3}
н/о н/о +10.8 +8.6 86 +10 +10 1009.3 1003.7
02 21.08 штиль 0-1
{2}
н/о н/о +10.2 +8.5 89 +9 +9 1009.2 1003.7
03 21.08 штиль 0-1
{1}
н/о н/о +10.7 +9.1 90 +10 +10 1009.3 1003.7
04 21.08 Ю 1-2
{2}
н/о н/о +11.7 +10.0 89 +11 +11 1009.4 1003.8
05 21.08 штиль 0-1
{2}
н/о н/о +12.2 +9.9 86 +12 +12 1009.8 1004.2
06 21.08 З 2-3
{3}
н/о н/о +13.4 +10.4 82 +13 +13 1009.7 1004.2 +10.0 +13.4
07 21.08 Ю 1-2
{3}
н/о н/о +14.1 +10.3 78 +14 +14 1010.2 1004.7
08 21.08 Ю 2-4
{5}
н/о н/о +16.5 +11.0 70 +17 +17 1010.0 1004.5
09 21.08 ЮЗ 2-5
{6}
н/о н/о +14.1 +9.1 72 +14 +14 1010.2 1004.7
10 21.08 Ю 3-6
{6}
н/о н/о +17.3 +9.2 59 +17 +17 1010.1 1004.6
11 21.08 Ю 3-7
{9}
н/о н/о +17.2 +9.6 61 +17 +17 1010.4 1005.0
12 21.08 Ю 4-10
{10}
н/о н/о +17.6 +8.7 56 +17 +17 1010.4 1005.0
13 21.08 ЮЗ 4-10
{11}
н/о н/о +15.7 +8.2 61 +15 +15 1010.7 1005.2
14 21.08 ЮЗ 4-10
{10}
н/о н/о +15.4 +8.4 63 +14 +14 1010.9 1005.4
15 21.08 ЮЗ 3-6
{12}
н/о н/о +13.7 +9.8 77 +13 +13 1011.4 1005.8
16 21.08 В 1-3
{4}
н/о н/о +16.0 +11.8 76 +17 +17 1011.9 1006.4
17 21.08 ЮЗ 2-6
{6}
н/о н/о +14.0 +10.0 77 +14 +14 1012.5 1006.9
18 21.08 ЮЗ 1-3
{12}
н/о н/о +13.1 +8.2 72 +13 +13 1013.3 1007.8 +13.1 +18.1 0.3
19 21.08 ЮЗ 1-2
{3}
н/о н/о +12.3 +8.2 76 +12 +12 1014.0 1008.5
20 21.08 Ю 1-3
{4}
н/о н/о +12.1 +7.6 74 +12 +12 1014.6 1009.0
21 21.08 ЮЗ 1-2
{3}
н/о н/о +11.8 +7.9 77 +12 +12 1015.2 1009.6
22 21.08 Ю 1-2
{2}
н/о н/о +11.4 +7.9 79 +11 +11 1015.6 1010.0
23 21.08 Ю 2-2
{3}
н/о н/о +11.4 +7.9 79 +10 +10 1016.0 1010.4
00 22.08 ЮЗ 1-3
{4}
н/о н/о +11.4 +7.9 79 +11 +11 1016.4 1010.8
01 22.08 Ю 1-2
{3}
н/о н/о +11.2 +7.7 79 +11 +11 1016.7 1011.1

 

Местоположение метеостанции Харстад (Норвегия): широта 68.80 долгота 16.53 высота над уровнем моря 45 м.

В архиве по умолчанию представлена погода в Харстаде за последнюю неделю. Архивные данные за месяц целиком и за предыдущие месяцы, начиная с января 2011 года, Вы можете получить, выбрав интересующий диапазон дат из раскрывающегося списка и нажав кнопку "Ввод!".


*Определитесь, кто Вы:
робот инопланетянин человек

Внимание! Время в таблицах - всемирное. Для получения местного времени необходимо прибавить поправку, которая равна 1 ч.

Смотрите также архив погоды в соседних городах и на ближайших метеорологических станциях:

Погода в Аэропорту Харстад/Нарвик (Норвегия) (35 км)
Погода в Сортланне (Норвегия) (46 км)
Погода в Нарвике (Норвегия) (53 км)
Погода на Маяке Rotvaer (Норвегия) (53 км)
Погода на Аннёйа (Норвегия) (58 км)
Погода в Страумснесе (Норвегия) (62 км)
Погода в Стокмаркнес аэропорту (Норвегия) (65 км)
Погода в Каттерьяк аэропорту (Швеция) (79 км)
Погода в Каттерьяке (Швеция) (79 км)
Погода в Лосистуа (Норвегия) (85 км)

Пояснения к столбцам:

Ветер - указаны скорость ветра в м/с - средняя за 10 мин, порывы в срок и между сроками (в фигурных скобках) и направление, откуда дует ветер: С - северный, СВ - северо-восточный, В - восточный, ЮВ - юго-восточный, Ю - южный, ЮЗ - юго-западный, З - западный, СЗ - северо-западный.
Видимость - горизонтальная дальность видимости в метрах или километрах. При видимости от 1 до 10 км при отсутствии осадков обычно наблюдается дымка, при ухудшении видимости до 1 км и менее - туман. В сухую погоду видимость может ухудшаться дымом, пылью или мглою.
Явления - указаны атмосферные явления, наблюдавшиеся в срок или в последний час перед сроком; фигурными скобками обозначены явления, наблюдавшиеся между сроками (за 1-3 часа до срока); квадратными скобками обозначены град или гололедные отложения с указанием их диаметра в мм.
Облачность - указаны через наклонную черту общая и нижняя облачность в баллах и высота нижней границы облаков в метрах; квадратными скобками обозначены формы облаков: Ci - перистые, Cs - перисто-слоистые, Cc - перисто-кучевые, Ac - высококучевые, As - высокослоистые, Sc - слоисто-кучевые, Ns - слоисто-дождевые, Cu - кучевые, Cb - кучево-дождевые. Подробнее классификацию облаков см. в Атласе облаков (PDF).
T - Температура воздуха - температура, измеренная на высоте 2 м над землей.
Td - Температура точки росы - температура, при понижении до которой содержащийся в воздухе водяной пар достигнет насыщения.
f - Относительная влажность воздуха - влажноcть воздуха, измеренная на высоте 2 м над землей.
Te - Эффективная температура - температура, которую ощущает одетый по сезону человек в тени. Характеристика душности погоды. При расчете учитывается влияние влажности воздуха и скорости ветра на теплоощущения человека.
Tes - Эффективная температура на солнце - температура, которую ощущает человек, с поправкой на солнечный нагрев. Характеристика знойности погоды. Зависит от высоты солнца над горизонтом, облачности и скорости ветра. Ночью, в пасмурную погоду, а также при ветре 12 м/с и более поправка равна нулю.
P - Атмосферное давление - приведенное к уровню моря атмосферное давление.
Po - Атмосферное давление - измеренное на уровне метеостанции атмосферное давление.
Tmin - Минимальная температура - минимум температуры воздуха на высоте 2 м над землей.
Tmax - Максимальная температура - максимум температуры воздуха на высоте 2 м над землей.
R - Количество осадков - Количество выпавших осадков за период времени, мм. При наведении курсора мыши на число - период времени, за который выпало указанное количество осадков.
R24 - Количество осадков - Количество выпавших осадков за 24 часа, мм.
S - Снежный покров - Высота снежного покрова, см. При наведении курсора мыши на число - состояние снежного покрова и степень покрытия местности в баллах.